Regional Weather Roundup
Issued by NWS Albany, NY

Home | Current Version | Previous Version | Text Only | Print | Product List | Glossary On
Versions: 1 2 3 4 5 6 7 8 9 10 11 12 13 14 15 16 17 18 19 20 21 22 23 24 25 26 27 28 29 30 31 32 33 34 35 36 37 38 39 40 41 42 43 44 45 46 47 48 49 50
019
ASUS41 KALY 161910
RWRALY

NEW YORK STATE HOURLY WEATHER ROUNDUP
NATIONAL WEATHER SERVICE ALBANY NY
200 PM EST MON JAN 16 2017

NOTE: "FAIR" INDICATES FEW OR NO CLOUDS BELOW 12,000 FEET WITH NO
SIGNIFICANT WEATHER AND/OR NO OBSTRUCTIONS TO VISIBILITY.

NYZ032-033-038>043-046>054-057>066-NYZ062>081-082-084-162000-
EAST


CITY           SKY/WX    TMP DP  RH WIND       PRES   REMARKS
ALBANY         MOSUNNY   37  18  46 S10       30.31F WCI  30
GLENS FALLS    CLOUDY    36  20  52 S9        30.28F WCI  29
POUGHKEEPSIE   SUNNY     38  19  46 SW6       30.33F WCI  33
NEWBURGH       MOSUNNY   39  23  52 SW14      30.34F WCI  31
MONTGOMERY     SUNNY     42  23  46 SW7       30.31F
WHITE PLAINS   SUNNY     40  19  43 W5        30.34F
ISLIP          PTSUNNY   40  22  48 S7        30.36F
NEW YORK CITY  PTSUNNY   43  22  43 SW7       30.37F
CENTRAL PARK   SUNNY     41  21  44 VRB3      30.39F
$$

NYZ005>009-017-018-044>046-055-056-162000-
CENTRAL


CITY           SKY/WX    TMP DP  RH WIND       PRES   REMARKS
FULTON         SUNNY     39  20  46 S8        30.30F WCI  33
SYRACUSE       CLOUDY    39  16  39 W9        30.30F WCI  33
ROME           MOSUNNY   37  20  50 W7        30.31F WCI  32
ELMIRA         CLOUDY    41  18  39 S3        30.28F
BINGHAMTON     CLOUDY    35  17  47 SW7       30.26F WCI  29
MONTICELLO     SUNNY     36  18  48 W7        30.31F WCI  30
$$

NYZ026>034-041>043-087-162000-
NORTH


CITY           SKY/WX    TMP DP  RH WIND       PRES   REMARKS
WATERTOWN      CLOUDY    36  27  69 SW12      30.28S WCI  28
FORT DRUM      NOT AVBL
OGDENSBURG     FAIR      38  28  68 SW18G26   30.22F WCI  28
MASSENA        SUNNY     39  26  59 SW21G26   30.20F WCI  29
SARANAC LAKE   SUNNY     34  14  43 SW16G23   30.14F WCI  24
PLATTSBURGH    SUNNY     36  20  52 SE13      30.17F WCI  27
$$

NYZ001>004-010>016-019>021-085-162000-
WEST


CITY           SKY/WX    TMP DP  RH WIND       PRES   REMARKS
NIAGARA FALLS  CLOUDY    38  23  55 SW10      30.29F WCI  31
BUFFALO        CLOUDY    36  19  50 SW10      30.29F WCI  28
DUNKIRK        CLOUDY    36  19  50 W5        30.29F WCI  32
JAMESTOWN      CLOUDY    36  19  51 CALM      30.24F
WELLSVILLE     CLOUDY    43   8  23 SW7       30.25F
ROCHESTER      CLOUDY    41  18  39 W9        30.29F
PENN YAN       SUNNY     41  18  39 S5        30.27F
$$

             KEY
       WCI = WIND CHILL INDEX
       VSB = VISIBILITY
       HX  = HEAT INDEX
$$




USA.gov is the U.S. government's official web portal to all federal, state and local government web resources and services.